Location: *
(50.6089°N, 2.2719°E)
Time: 07:23:30
(UTC+00:00)

CZ-4C R/B - Pass Details

Date: 18 October 2019
Orbit: 651 x 1351 km, 63.4° (Epoch: 16 November)

Event Time Altitude Azimuth Distance (km) Brightness Sun altitude
Rises 17:25:22 0° 314° (NW) 3,829 6.2 -5.8°
Reaches altitude 10° 17:27:57 10° 309° (NW) 2,969 5.7 -6.2°
Maximum altitude 17:34:44 46° 239° (WSW) 1,602 4.2 -7.3°
Drops below altitude 10° 17:42:23 10° 170° (S) 3,335 5.2 -8.5°
Sets 17:45:28 0° 165° (SSE) 4,341 5.8 -9.0°
